Satellite: NOAA-11 Catalog number: 19531 Epoch time: 11258.36203870 Element set: 635 Inclination: 098.7507 deg RA of node: 344.1078 deg Eccentricity: 0.0010615 Arg of perigee: 293.9742 deg Mean anomaly: 066.0342 deg Mean motion: 14.14924084 rev/day Decay rate: 2.97e-06 rev/day^2 Epoch rev: 18550 Checksum: 298
Satellite: NOAA-12 Catalog number: 21263 Epoch time: 11258.47752765 Element set: 126 Inclination: 098.7496 deg RA of node: 276.1575 deg Eccentricity: 0.0011569 Arg of perigee: 286.8354 deg Mean anomaly: 073.1557 deg Mean motion: 14.25738600 rev/day Decay rate: 1.57e-06 rev/day^2 Epoch rev: 5727 Checksum: 328
Satellite: MET-3/5 Catalog number: 21655 Epoch time: 11257.85266883 Element set: 208 Inclination: 082.5624 deg RA of node: 347.4209 deg Eccentricity: 0.0012119 Arg of perigee: 295.4267 deg Mean anomaly: 064.5616 deg Mean motion: 13.17028283 rev/day Decay rate: 5.1e-07 rev/day^2 Epoch rev: 96552 Checksum: 311
Satellite: MET-2/21 Catalog number: 22782 Epoch time: 11257.56268183 Element set: 202 Inclination: 082.5437 deg RA of node: 251.9639 deg Eccentricity: 0.0021734 Arg of perigee: 204.5849 deg Mean anomaly: 155.4266 deg Mean motion: 13.83661420 rev/day Decay rate: 8.8e-07 rev/day^2 Epoch rev: 91091 Checksum: 308
Satellite: OKEAN-4 Catalog number: 23317 Epoch time: 11257.96329427 Element set: 0707 Inclination: 082.5394 deg RA of node: 289.3080 deg Eccentricity: 0.0021736 Arg of perigee: 178.0909 deg Mean anomaly: 182.0395 deg Mean motion: 14.83150709 rev/day Decay rate: 7.86e-06 rev/day^2 Epoch rev: 91385 Checksum: 329
Satellite: NOAA-14 Catalog number: 23455 Epoch time: 11258.47911697 Element set: 611 Inclination: 098.8477 deg RA of node: 340.1977 deg Eccentricity: 0.0009949 Arg of perigee: 027.5644 deg Mean anomaly: 332.6055 deg Mean motion: 14.13832359 rev/day Decay rate: 1.68e-06 rev/day^2 Epoch rev: 86183 Checksum: 340
Satellite: NOAA-15 Catalog number: 25338 Epoch time: 11258.32548045 Element set: 949 Inclination: 098.6635 deg RA of node: 243.2728 deg Eccentricity: 0.0010407 Arg of perigee: 185.3664 deg Mean anomaly: 174.7403 deg Mean motion: 14.24949478 rev/day Decay rate: 1.18e-06 rev/day^2 Epoch rev: 69356 Checksum: 334
Satellite: RESURS Catalog number: 25394 Epoch time: 11257.96133139 Element set: 0912 Inclination: 098.3047 deg RA of node: 256.0590 deg Eccentricity: 0.0001670 Arg of perigee: 009.7856 deg Mean anomaly: 350.3358 deg Mean motion: 14.24239635 rev/day Decay rate: 9.8e-07 rev/day^2 Epoch rev: 68508 Checksum: 313
Satellite: FENGYUN1 Catalog number: 25730 Epoch time: 11258.87207218 Element set: 422 Inclination: 098.8235 deg RA of node: 218.1028 deg Eccentricity: 0.0025238 Arg of perigee: 059.4326 deg Mean anomaly: 300.9334 deg Mean motion: 14.08789026 rev/day Decay rate: 1.636e-05 rev/day^2 Epoch rev: 63583 Checksum: 300
Satellite: OKEAN-0 Catalog number: 25860 Epoch time: 11257.98346273 Element set: 0413 Inclination: 097.8952 deg RA of node: 222.0106 deg Eccentricity: 0.0001888 Arg of perigee: 063.9315 deg Mean anomaly: 296.2088 deg Mean motion: 14.73831979 rev/day Decay rate: 3.49e-06 rev/day^2 Epoch rev: 65388 Checksum: 335
Satellite: NOAA-16 Catalog number: 26536 Epoch time: 11258.38374037 Element set: 432 Inclination: 099.1337 deg RA of node: 290.7312 deg Eccentricity: 0.0011125 Arg of perigee: 136.3637 deg Mean anomaly: 223.8426 deg Mean motion: 14.12642207 rev/day Decay rate: -1.14e-06 rev/day^2 Epoch rev: 56609 Checksum: 284
Satellite: NOAA-17 Catalog number: 27453 Epoch time: 11258.30721842 Element set: 419 Inclination: 098.3715 deg RA of node: 293.8467 deg Eccentricity: 0.0010800 Arg of perigee: 243.7524 deg Mean anomaly: 116.2540 deg Mean motion: 14.24310631 rev/day Decay rate: -5.2e-07 rev/day^2 Epoch rev: 47948 Checksum: 290
Satellite: NOAA-18 Catalog number: 28654 Epoch time: 11258.33789970 Element set: 897 Inclination: 099.0046 deg RA of node: 209.7442 deg Eccentricity: 0.0013725 Arg of perigee: 208.5447 deg Mean anomaly: 151.4972 deg Mean motion: 14.11513873 rev/day Decay rate: 3.14e-06 rev/day^2 Epoch rev: 32564 Checksum: 326
Satellite: NOAA-19 Catalog number: 33591 Epoch time: 11258.35515411 Element set: 88 Inclination: 098.8322 deg RA of node: 197.0155 deg Eccentricity: 0.0015152 Arg of perigee: 080.6548 deg Mean anomaly: 279.6344 deg Mean motion: 14.11201897 rev/day Decay rate: -8.7e-07 rev/day^2 Epoch rev: 13410 Checksum: 299
/EX SB KEPS @ AMSAT $ORB11258.M Orbital Elements 11258.MISC
HR AMSAT ORBITAL ELEMENTS FOR MANNED AND MISCELLANEOUS SATELLITES FROM WA5QGD FORT WORTH,TX September 15, 2011 Send Subscribe/unsubscribe to KEPS at http://www.amsat.org/mailman/listinfo/keps BID: ORB11258.M TO ALL RADIO AMATEURS BT
Satellite: HUBBLE Catalog number: 20580 Epoch time: 11258.12105077 Element set: 835 Inclination: 028.4708 deg RA of node: 148.9114 deg Eccentricity: 0.0003090 Arg of perigee: 356.9216 deg Mean anomaly: 003.1378 deg Mean motion: 15.01503895 rev/day Decay rate: 1.691e-05 rev/day^2 Epoch rev: 97318 Checksum: 284
Satellite: ISS Catalog number: 25544 Epoch time: 11258.85068326 Element set: 71 Inclination: 051.6391 deg RA of node: 064.3815 deg Eccentricity: 0.0011453 Arg of perigee: 194.5135 deg Mean anomaly: 320.6872 deg Mean motion: 15.61117627 rev/day Decay rate: 1.8207e-04 rev/day^2 Epoch rev: 73506 Checksum: 288
Satellite: CO-58 Catalog number: 28895 Epoch time: 11258.65857009 Element set: 974 Inclination: 097.9522 deg RA of node: 131.4856 deg Eccentricity: 0.0016706 Arg of perigee: 298.9719 deg Mean anomaly: 060.9816 deg Mean motion: 14.60170908 rev/day Decay rate: 5.34e-06 rev/day^2 Epoch rev: 31344 Checksum: 352
Satellite: FALCON Catalog number: 30776 Epoch time: 11257.94549029 Element set: 0189 Inclination: 035.4329 deg RA of node: 161.0915 deg Eccentricity: 0.0000539 Arg of perigee: 212.2053 deg Mean anomaly: 147.8643 deg Mean motion: 15.04939642 rev/day Decay rate: 2.804e-05 rev/day^2 Epoch rev: 24857 Checksum: 304
Satellite: MAST Catalog number: 31126 Epoch time: 11257.64849742 Element set: 259 Inclination: 097.8918 deg RA of node: 279.8038 deg Eccentricity: 0.0093230 Arg of perigee: 252.2793 deg Mean anomaly: 106.8210 deg Mean motion: 14.53801629 rev/day Decay rate: 4.50e-06 rev/day^2 Epoch rev: 23408 Checksum: 307
Satellite: CAPE1 Catalog number: 31130 Epoch time: 11257.57986262 Element set: 0273 Inclination: 097.8965 deg RA of node: 276.3781 deg Eccentricity: 0.0101215 Arg of perigee: 263.8629 deg Mean anomaly: 095.1025 deg Mean motion: 14.52461735 rev/day Decay rate: 3.69e-06 rev/day^2 Epoch rev: 23361 Checksum: 308
Satellite: COMPASS Catalog number: 32787 Epoch time: 11258.65275790 Element set: 92 Inclination: 097.8392 deg RA of node: 320.7511 deg Eccentricity: 0.0014636 Arg of perigee: 239.3616 deg Mean anomaly: 120.6156 deg Mean motion: 14.82601672 rev/day Decay rate: 1.289e-05 rev/day^2 Epoch rev: 18296 Checksum: 315
Satellite: AAUSAT2 Catalog number: 32788 Epoch time: 11257.72749079 Element set: 0082 Inclination: 097.8424 deg RA of node: 320.0978 deg Eccentricity: 0.0014115 Arg of perigee: 243.3593 deg Mean anomaly: 116.6145 deg Mean motion: 14.82796228 rev/day Decay rate: 1.388e-05 rev/day^2 Epoch rev: 18284 Checksum: 329
Satellite: DO-64 Catalog number: 32789 Epoch time: 11258.71751268 Element set: 98 Inclination: 097.8503 deg RA of node: 322.2545 deg Eccentricity: 0.0014365 Arg of perigee: 237.0771 deg Mean anomaly: 122.9035 deg Mean motion: 14.83375146 rev/day Decay rate: 2.540e-05 rev/day^2 Epoch rev: 18300 Checksum: 307
Satellite: CO-66 Catalog number: 32791 Epoch time: 11258.68913973 Element set: 85 Inclination: 097.8393 deg RA of node: 320.6956 deg Eccentricity: 0.0014949 Arg of perigee: 238.8934 deg Mean anomaly: 121.0779 deg Mean motion: 14.82266821 rev/day Decay rate: 1.606e-05 rev/day^2 Epoch rev: 18291 Checksum: 354
Satellite: RS-30 Catalog number: 32953 Epoch time: 11258.61692914 Element set: 87 Inclination: 082.4989 deg RA of node: 106.5105 deg Eccentricity: 0.0018191 Arg of perigee: 187.3980 deg Mean anomaly: 172.6838 deg Mean motion: 12.43014767 rev/day Decay rate: 1.0e-07 rev/day^2 Epoch rev: 15032 Checksum: 302
Satellite: TACSAT-3 Catalog number: 35001 Epoch time: 11257.72495298 Element set: 695 Inclination: 040.4537 deg RA of node: 347.9378 deg Eccentricity: 0.0018406 Arg of perigee: 159.7425 deg Mean anomaly: 200.4126 deg Mean motion: 15.51934285 rev/day Decay rate: 3.3011e-04 rev/day^2 Epoch rev: 13098 Checksum: 305
Satellite: PHARMSAT Catalog number: 35002 Epoch time: 11257.66516252 Element set: 648 Inclination: 040.4677 deg RA of node: 346.7156 deg Eccentricity: 0.0020177 Arg of perigee: 168.2792 deg Mean anomaly: 191.8498 deg Mean motion: 15.50954341 rev/day Decay rate: 2.6872e-04 rev/day^2 Epoch rev: 13099 Checksum: 320
Satellite: HAWKSAT1 Catalog number: 35003 Epoch time: 11258.51050501 Element set: 765 Inclination: 040.4491 deg RA of node: 293.2430 deg Eccentricity: 0.0011782 Arg of perigee: 170.5774 deg Mean anomaly: 189.5281 deg Mean motion: 15.84976376 rev/day Decay rate: 3.15989e-03 rev/day^2 Epoch rev: 13165 Checksum: 306
Satellite: CP6 Catalog number: 35004 Epoch time: 11247.64656856 Element set: 784 Inclination: 040.4403 deg RA of node: 342.9642 deg Eccentricity: 0.0002956 Arg of perigee: 038.0069 deg Mean anomaly: 322.2231 deg Mean motion: 16.41039951 rev/day Decay rate: 1.6152067e-01 rev/day^2 Epoch rev: 13013 Checksum: 285
Satellite: METEOR-M Catalog number: 35865 Epoch time: 11258.78945621 Element set: 727 Inclination: 098.6977 deg RA of node: 312.7019 deg Eccentricity: 0.0002892 Arg of perigee: 114.0340 deg Mean anomaly: 246.1084 deg Mean motion: 14.21841808 rev/day Decay rate: 1.77e-06 rev/day^2 Epoch rev: 10346 Checksum: 306
